• In Netherlands
  • List of Countries
  • For 7 days
  • Water Temperature
  • Satellite Maps
  • Weather Map
  • Weather Widgets
  • user-avatar
    Login

    Hourly Weather Naftalan

    Today, 21 February, Tuesday

    Time Temperature Precipitation Wind Pressure Humidity
    00:00 +3°C° 0 mm 2 mps 769 mmHg 88%
    01:00 +2°C° 0 mm 2 mps 769 mmHg 88%
    02:00 +2°C° 0 mm 2 mps 768 mmHg 88%
    03:00 +2°C° 0 mm 2 mps 768 mmHg 87%
    04:00 +2°C° 0 mm 2 mps 767 mmHg 87%
    05:00 +2°C° 0 mm 2 mps 767 mmHg 87%
    06:00 +2°C° 0 mm 2 mps 767 mmHg 87%
    07:00 +4°C° 0 mm 2 mps 767 mmHg 83%
    08:00 +5°C° 0 mm 2 mps 767 mmHg 78%
    09:00 +8°C° 0 mm 2 mps 767 mmHg 71%
    10:00 +9°C° 0 mm 2 mps 766 mmHg 64%
    11:00 +10°C° 0 mm 2 mps 766 mmHg 57%
    12:00 +12°C° 0 mm 2 mps 766 mmHg 50%
    13:00 +12°C° 0 mm 2 mps 765 mmHg 51%
    14:00 +13°C° 0 mm 2 mps 765 mmHg 51%
    15:00 +13°C° 0 mm 2 mps 764 mmHg 51%
    16:00 +10°C° 0 mm 3 mps 764 mmHg 59%
    17:00 +8°C° 0 mm 3 mps 764 mmHg 67%
    18:00 +5°C° 0 mm 3 mps 764 mmHg 75%
    19:00 +5°C° 0 mm 3 mps 764 mmHg 76%
    20:00 +5°C° 0 mm 3 mps 763 mmHg 78%
    21:00 +4°C° 0 mm 3 mps 763 mmHg 79%
    22:00 +4°C° 0 mm 3 mps 763 mmHg 78%
    23:00 +4°C° 0 mm 3 mps 763 mmHg 76%

    Tomorrow, 22 February, Wednesday

    Time Temperature Precipitation Wind Pressure Humidity
    00:00 +4°C° 0 mm 3 mps 763 mmHg 75%
    01:00 +3°C° 0 mm 3 mps 763 mmHg 73%
    02:00 +4°C° 0 mm 2 mps 763 mmHg 70%
    03:00 +4°C° 0 mm 2 mps 762 mmHg 68%
    04:00 +4°C° 0 mm 2 mps 763 mmHg 65%
    05:00 +3°C° 0 mm 3 mps 763 mmHg 63%
    06:00 +3°C° 0 mm 3 mps 763 mmHg 61%
    07:00 +5°C° 0 mm 3 mps 763 mmHg 57%
    08:00 +6°C° 0 mm 4 mps 764 mmHg 54%
    09:00 +8°C° 0 mm 4 mps 764 mmHg 50%
    10:00 +11°C° 0 mm 4 mps 764 mmHg 46%
    11:00 +12°C° 0 mm 4 mps 764 mmHg 42%
    12:00 +14°C° 0 mm 4 mps 764 mmHg 38%
    13:00 +14°C° 0 mm 3 mps 764 mmHg 38%
    14:00 +15°C° 0 mm 2 mps 763 mmHg 38%
    15:00 +15°C° 0 mm 2 mps 763 mmHg 38%
    16:00 +13°C° 0 mm 2 mps 763 mmHg 43%
    17:00 +11°C° 0 mm 3 mps 763 mmHg 49%
    18:00 +9°C° 0 mm 3 mps 764 mmHg 54%
    19:00 +8°C° 0 mm 3 mps 763 mmHg 54%
    20:00 +8°C° 0 mm 3 mps 763 mmHg 55%
    21:00 +6°C° 0 mm 4 mps 763 mmHg 55%
    22:00 +6°C° 0 mm 4 mps 763 mmHg 55%
    23:00 +7°C° 0 mm 3 mps 763 mmHg 55%

    Day after tomorrow, 23 February, Thursday

    Time Temperature Precipitation Wind Pressure Humidity
    00:00 +5°C° 0 mm 3 mps 763 mmHg 55%
    01:00 +5°C° 0 mm 3 mps 763 mmHg 55%
    02:00 +5°C° 0 mm 3 mps 762 mmHg 56%
    03:00 +4°C° 0 mm 3 mps 762 mmHg 56%
    04:00 +4°C° 0 mm 4 mps 763 mmHg 56%
    05:00 +3°C° 0 mm 5 mps 763 mmHg 56%
    06:00 +3°C° 0 mm 5 mps 763 mmHg 56%
    07:00 +5°C° 0 mm 6 mps 764 mmHg 53%
    08:00 +8°C° 0 mm 7 mps 764 mmHg 51%
    09:00 +9°C° 0 mm 8 mps 765 mmHg 49%
    10:00 +10°C° 0 mm 7 mps 766 mmHg 46%
    11:00 +12°C° 0 mm 7 mps 766 mmHg 43%
    12:00 +14°C° 0 mm 6 mps 766 mmHg 40%
    13:00 +14°C° 0 mm 6 mps 766 mmHg 39%
    14:00 +15°C° 0 mm 5 mps 766 mmHg 38%
    15:00 +15°C° 0 mm 4 mps 766 mmHg 37%
    16:00 +13°C° 0 mm 4 mps 766 mmHg 45%
    17:00 +11°C° 0 mm 4 mps 767 mmHg 54%
    18:00 +8°C° 0 mm 4 mps 767 mmHg 62%
    19:00 +7°C° 0 mm 4 mps 767 mmHg 67%
    20:00 +7°C° 0 mm 4 mps 767 mmHg 73%
    21:00 +6°C° 0 mm 5 mps 767 mmHg 78%
    22:00 +6°C° 0 mm 4 mps 767 mmHg 76%
    23:00 +6°C° 0 mm 4 mps 767 mmHg 73%

    24 February, Friday

    Time Temperature Precipitation Wind Pressure Humidity
    00:00 +7°C° 0 mm 3 mps 767 mmHg 71%
    01:00 +5°C° 0 mm 4 mps 767 mmHg 65%
    02:00 +5°C° 0 mm 4 mps 766 mmHg 58%
    03:00 +5°C° 0 mm 5 mps 766 mmHg 52%
    04:00 +5°C° 0 mm 5 mps 767 mmHg 53%
    05:00 +4°C° 0 mm 6 mps 767 mmHg 53%
    06:00 +4°C° 0 mm 6 mps 767 mmHg 53%
    07:00 +7°C° 0 mm 6 mps 768 mmHg 51%
    08:00 +9°C° 0 mm 6 mps 768 mmHg 48%
    09:00 +10°C° 0 mm 6 mps 769 mmHg 45%
    10:00 +13°C° 0 mm 5 mps 769 mmHg 42%
    11:00 +14°C° 0 mm 4 mps 769 mmHg 39%
    12:00 +17°C° 0 mm 3 mps 769 mmHg 36%
    13:00 +17°C° 0 mm 2 mps 769 mmHg 35%
    14:00 +17°C° 0 mm 2 mps 769 mmHg 35%
    15:00 +18°C° 0 mm 1 mps 769 mmHg 35%
    16:00 +15°C° 0 mm 2 mps 769 mmHg 41%
    17:00 +14°C° 0 mm 2 mps 769 mmHg 47%
    18:00 +11°C° 0 mm 3 mps 769 mmHg 54%
    19:00 +10°C° 0 mm 3 mps 770 mmHg 54%
    20:00 +9°C° 0 mm 3 mps 770 mmHg 55%
    21:00 +9°C° 0 mm 3 mps 770 mmHg 55%
    22:00 +8°C° 0 mm 3 mps 770 mmHg 57%
    23:00 +8°C° 0 mm 3 mps 770 mmHg 59%

    25 February, Saturday

    Time Temperature Precipitation Wind Pressure Humidity
    00:00 +7°C° 0 mm 3 mps 769 mmHg 61%
    01:00 +7°C° 0 mm 3 mps 769 mmHg 63%
    02:00 +7°C° 0 mm 2 mps 769 mmHg 65%
    03:00 +6°C° 0 mm 2 mps 769 mmHg 67%
    04:00 +6°C° 0 mm 2 mps 769 mmHg 68%
    05:00 +6°C° 0 mm 2 mps 769 mmHg 69%
    06:00 +6°C° 0 mm 2 mps 769 mmHg 70%
    07:00 +8°C° 0 mm 2 mps 769 mmHg 63%
    08:00 +10°C° 0 mm 2 mps 769 mmHg 56%
    09:00 +13°C° 0 mm 2 mps 769 mmHg 49%
    10:00 +15°C° 0 mm 2 mps 768 mmHg 45%
    11:00 +16°C° 0 mm 2 mps 768 mmHg 42%
    12:00 +17°C° 0 mm 2 mps 767 mmHg 39%
    13:00 +18°C° 0 mm 2 mps 767 mmHg 39%
    14:00 +18°C° 0 mm 2 mps 766 mmHg 39%
    15:00 +18°C° 0 mm 3 mps 765 mmHg 39%
    16:00 +16°C° 0 mm 3 mps 765 mmHg 47%
    17:00 +13°C° 0 mm 3 mps 765 mmHg 55%
    18:00 +11°C° 0 mm 4 mps 765 mmHg 64%
    19:00 +11°C° 0 mm 4 mps 764 mmHg 64%
    20:00 +10°C° 0 mm 4 mps 764 mmHg 65%
    21:00 +8°C° 0 mm 4 mps 763 mmHg 65%
    22:00 +8°C° 0 mm 4 mps 763 mmHg 63%
    23:00 +9°C° 0 mm 3 mps 762 mmHg 61%

    26 February, Sunday

    Time Temperature Precipitation Wind Pressure Humidity
    00:00 +9°C° 0 mm 3 mps 761 mmHg 60%
    01:00 +9°C° 0 mm 3 mps 761 mmHg 58%
    02:00 +9°C° 0 mm 3 mps 760 mmHg 56%
    03:00 +9°C° 0 mm 3 mps 760 mmHg 55%
    04:00 +8°C° 0 mm 4 mps 760 mmHg 53%
    05:00 +8°C° 0 mm 5 mps 760 mmHg 50%
    06:00 +8°C° 0 mm 6 mps 760 mmHg 48%
    07:00 +10°C° 0 mm 7 mps 761 mmHg 45%
    08:00 +12°C° 0 mm 7 mps 762 mmHg 42%
    09:00 +13°C° 0 mm 8 mps 763 mmHg 39%
    10:00 +16°C° 0 mm 8 mps 763 mmHg 37%
    11:00 +17°C° 0 mm 8 mps 764 mmHg 35%
    12:00 +18°C° 0 mm 9 mps 765 mmHg 33%
    13:00 +17°C° 0 mm 10 mps 766 mmHg 36%
    14:00 +14°C° 0 mm 10 mps 767 mmHg 40%
    15:00 +13°C° 0 mm 11 mps 768 mmHg 43%
    16:00 +11°C° 0 mm 10 mps 769 mmHg 45%
    17:00 +8°C° 0 mm 9 mps 770 mmHg 47%
    18:00 +6°C° 0 mm 9 mps 771 mmHg 50%
    19:00 +5°C° 0 mm 8 mps 771 mmHg 53%
    20:00 +5°C° 0 mm 7 mps 772 mmHg 56%
    21:00 +5°C° 0 mm 6 mps 772 mmHg 59%
    22:00 +5°C° 0 mm 5 mps 772 mmHg 62%
    23:00 +5°C° 0 mm 5 mps 772 mmHg 66%
    Show more